Location: Al Mulaqqa?ah
(24.1833°N, 32.8833°E)
Time: 03:35:06
(UTC+00:00)

H-2A R/B - Pass Details

Date: 26 September 2021
Orbit: 576 x 655 km, 98.5° (Epoch: 15 October)

Event Time Altitude Azimuth Distance (km) Brightness Sun altitude
Rises 16:11:18 0° 17° (NNE) 2,810 5.3 -7.8°
Reaches altitude 10° 16:13:30 10° 21° (NNE) 1,899 4.4 -8.3°
Maximum altitude 16:17:32 60° 101° (E) 660 1.9 -9.3°
Drops below altitude 10° 16:21:33 10° 182° (S) 1,877 4.5 -10.2°
Sets 16:23:42 0° 186° (S) 2,772 5.4 -10.7°
